User: anonymous   Login
Location: ??
(35.5052°N, 139.7262°E)
Time: 05:36:39
(UTC+00:00)
Language:

Cosmos 1076 Rocket - Orbit

View from above orbital plane
View from above orbital plane
View from above satellite
View from above satellite

Ground track
Ground track

The orbit data is extracted from the following two-line orbital elements,

1 11267U 79011B   21267.76889482  .00000171  00000-0  15363-4 0  9996
2 11267  82.5278 195.9032 0018456  80.0810 280.2490 14.89040689307690
Epoch (UTC): 24 September 2021 18:27:12
Eccentricity: 0.0018456
inclination: 82.5278°
perigee height: 588 km
apogee height: 614 km
right ascension of ascending node: 195.9032°
argument of perigee: 80.0810°
revolutions per day: 14.89040689
mean anomaly at epoch: 280.2490°
orbit number at epoch: 30769

The dashed part of the orbit path shows where the satellite is in the earth's shadow,  

DLR